Content
SEND FEEDBACK

Daily
Averages
Monthly
Summary
United States of America

BROOKLINE, MISSOURI


Home > North America > United States > Missouri
Elevation: 1270 feet     Latitude: 37 13N     Longitude: 093 22W

WEATHER
 
SELECT A DAY
Number of Records: 205,304;   Date Range: 1/1/95 - 7/29/14
 
SHARE

PRINT THIS DATA

[ ← Previous Day ]
WEATHER ALMANAC - JANUARY 6, 2013
[ Next Day → ]
[ °C ]   °F
Weather ElementAverageHighLow
Temperature30.6 °F41 °F (3:52 pm)21 °F (11:52 pm)
Dewpoint21.3 °F28 °F (1:52 am)16 °F (9:52 pm)
Humidity70 %82 % (1:52 am)43 % (3:52 pm)
Barometer30.33 in30.39 in (8:52 pm)30.22 in (1:52 am)
Wind Speed6.3 mph12.7 mph (9:52 am)
Weather ElementAverage
Visibility9.8 mi
Wind DirectionSW (230 °)

Weather ElementTotal
Precipitation---
Heating Degree Days34 (Base 65)
Averaged from 23 records on January 6, 2013
WEATHER CONDITIONS BREAKOUT
WIND DIRECTION BREAKOUT
WEATHER BY HOUR - JANUARY 6, 2013
[ °C ]   °F
Local TimeTemperatureDewpointHumidityBarometerVisibilityWind DirectionWind SpeedGust SpeedPrecipitationEventsConditions
1:52 AM33.1 °F28.0 °F82 %30.22 in10.0 miWest (280°)9.2 mphClear
2:52 AM30.9 °F26.1 °F82 %30.22 in10.0 miWest (270°)8.1 mphClear
3:52 AM30.0 °F25.0 °F82 %30.22 in10.0 miWest (270°)6.9 mphClear
4:52 AM28.9 °F24.1 °F82 %30.24 in10.0 miWest (280°)8.1 mphClear
5:52 AM28.9 °F23.0 °F78 %30.26 in10.0 miWNW (290°)6.9 mphClear
6:52 AM27.0 °F21.9 °F81 %30.29 in10.0 miWNW (300°)6.9 mphClear
7:52 AM26.1 °F21.0 °F81 %30.32 in10.0 miWNW (300°)5.8 mphClear
8:52 AM28.0 °F21.9 °F78 %30.34 in10.0 miNW (310°)9.2 mphClear
9:52 AM30.0 °F23.0 °F75 %30.35 in10.0 miNW (310°)12.7 mphClear
10:52 AM33.1 °F24.1 °F70 %30.36 in10.0 miWNW (300°)6.9 mphClear
11:52 AM35.1 °F23.0 °F61 %30.36 in10.0 miWNW (300°)9.2 mphClear
12:52 PM37.9 °F23.0 °F55 %30.34 in10.0 miNW (310°)11.5 mphClear
1:52 PM39.9 °F21.9 °F49 %30.33 in10.0 miNNW (340°)12.7 mphClear
2:52 PM39.9 °F21.9 °F49 %30.33 in10.0 miNNW (330°)6.9 mphClear
3:52 PM41.0 °F19.9 °F43 %30.35 in10.0 miNW (320°)5.8 mphClear
4:52 PM37.0 °F21.0 °F52 %30.36 in10.0 miNW (320°)4.6 mphClear
5:52 PM36.0 °F19.0 °F50 %30.35 in10.0 miCalmClear
6:52 PM28.0 °F18.0 °F66 %30.37 in10.0 miCalmClear
7:52 PM25.0 °F18.0 °F75 %30.38 in10.0 miCalmClear
8:52 PM23.0 °F17.1 °F78 %30.39 in10.0 miCalmClear
9:52 PM21.9 °F16.0 °F78 %30.38 in10.0 miSSE (150°)4.6 mphClear
10:52 PM23.0 °F18.0 °F81 %30.37 in8.0 miSE (140°)5.8 mphClear
11:52 PM21.0 °F16.0 °F81 %30.38 in7.0 miSouth (170°)3.5 mphClear
Hourly data recorded from KSGF, located miles away from Brookline, Missouri







STORIES FROM OUR PARTNERS